Location: American Medical Response
(33.3472°N, 96.5511°W)
Time: 08:19:34
(UTC+00:00)

Lacrosse 5 rocket - Pass Details

Date: 02 July 2022
Orbit: 455 x 628 km, 57.0° (Epoch: 07 August)

Event Time Altitude Azimuth Distance (km) Brightness Sun altitude
Rises 04:49:09 0° 306° (NW) 2,643 5.7 -28.7°
Reaches altitude 10° 04:51:36 10° 292° (WNW) 1,785 4.5 -28.9°
Enters shadow 04:52:55 17° 277° (W) 1,415 3.7 -29.0°
